This is the latest recevied weather packets stored in our database for station/object KM4CNW. If no packets are shown the sender has not sent any weather packets the latest 10 day(s).
| Time | Temp. | Humidity | Pressure | Rain* | Wind** | Luminosity | Snow |
|---|---|---|---|---|---|---|---|
| 1777393978 | 15.56° C | 83% | 1014.9 hPa | 0 mm | - | 168 W/m² | - |
| 1777393676 | 15.56° C | 85% | 1015.1 hPa | 0 mm | - | 251 W/m² | - |
| 1777393373 | 15° C | 84% | 1015.1 hPa | 0 mm | - | 248 W/m² | - |
| 1777393069 | 15.56° C | 84% | 1015.5 hPa | 0 mm | - | 238 W/m² | - |
| 1777392765 | 15.56° C | 84% | 1015.7 hPa | 0 mm | - | 284 W/m² | - |
| 1777392461 | 15° C | 87% | 1015.5 hPa | 0 mm | - | 344 W/m² | - |
| 1777392157 | 14.44° C | 88% | 1015.7 hPa | 0 mm | - | 257 W/m² | - |
| 1777391852 | 14.44° C | 88% | 1015.5 hPa | 0 mm | - | 212 W/m² | - |
| 1777391547 | 14.44° C | 90% | 1015.5 hPa | 0 mm | - | 264 W/m² | - |
| 1777391244 | 14.44° C | 90% | 1016 hPa | 0 mm | - | 208 W/m² | - |
| 1777390941 | 13.89° C | 91% | 1015 hPa | 0 mm | - | 243 W/m² | - |
| 1777390637 | 13.89° C | 90% | 1015.5 hPa | 0 mm | - | 178 W/m² | - |
| 1777390334 | 13.89° C | 91% | 1015.5 hPa | 0 mm | - | 141 W/m² | - |
| 1777390029 | 13.89° C | 91% | 1015.4 hPa | 0 mm | - | 152 W/m² | - |
| 1777389727 | 13.89° C | 91% | 1015.1 hPa | 0 mm | - | 212 W/m² | - |
| 1777389423 | 13.33° C | 92% | 1014.8 hPa | 0 mm | - | 234 W/m² | - |
| 1777389121 | 13.33° C | 93% | 1014.8 hPa | 0 mm | - | 133 W/m² | - |
| 1777388818 | 13.33° C | 93% | 1014.4 hPa | 0 mm | - | 178 W/m² | - |
| 1777388516 | 12.78° C | 93% | 1013.8 hPa | 0 mm | - | 175 W/m² | - |
| 1777388216 | 12.78° C | 94% | 1013.8 hPa | 0 mm | - | 135 W/m² | - |
| 1777387911 | 12.78° C | 94% | 1013.7 hPa | 0 mm | - | 137 W/m² | - |
| 1777387608 | 12.78° C | 94% | 1013.9 hPa | 0 mm | - | 138 W/m² | - |
| 1777387305 | 12.78° C | 94% | 1013.9 hPa | 0 mm | - | 113 W/m² | - |
| 1777386999 | 12.78° C | 94% | 1014.8 hPa | 0 mm | - | 104 W/m² | - |
| 1777386696 | 12.78° C | 94% | 1014.9 hPa | 0 mm | - | 93 W/m² | - |
* Rain latest hour (hover to see other rain measurements)
** Current wind speed in m/s (hover to see current wind gust speed)